Regional Weather Roundup
Issued by NWS

Home | Current Version | Previous Version | Graphics & Text | Print | Product List | Glossary On
Versions: 1 2 3 4 5 6 7 8 9 10 11 12 13 14 15 16 17 18 19 20 21 22 23 24 25 26 27 28 29 30 31 32 33 34 35 36 37 38 39 40 41 42 43 44 45 46 47 48 49 50
000
ASUS43 KFSD 301710
RWRSD

WEATHER ROUNDUP FOR SOUTH DAKOTA
NATIONAL WEATHER SERVICE SIOUX FALLS SD
1200 PM CDT SUN AUG 30 2015

NOTE: "FAIR" INDICATES FEW OR NO CLOUDS BELOW 12,000 FEET WITH NO
SIGNIFICANT WEATHER AND/OR OBSTRUCTIONS TO VISIBILITY.


SDZ001>005-009-010-012>017-301800-
NORTHWEST AND NORTH CENTRAL SOUTH DAKOTA

CITY           SKY/WX    TMP DP  RH WIND       PRES   REMARKS
BUFFALO          N/A     87  45  23 W14       29.72R
FAITH            N/A     85  51  31 SW18      29.78R
MOBRIDGE       SUNNY     83  60  45 S14       29.74F
$$

SDZ012>016-024>037-041>051-057-063-072>074-301800-
SOUTHWEST AND SOUTH CENTRAL SOUTH DAKOTA

CITY           SKY/WX    TMP DP  RH WIND       PRES   REMARKS
RAPID CTY ARPT MOSUNNY   84  56  38 S12       29.82S
PIERRE         SUNNY     92  51  24 S23G30    29.77F
CUSTER         MOSUNNY   86  37  17 W9G17     30.03S
ELLSWORTH AFB  PTSUNNY   84  56  37 S16       29.81S
PHILIP         SUNNY     88  56  33 S13G18    29.79F
PINE RIDGE     MOSUNNY   85  50  29 S14       29.89F
WINNER         FAIR      86  55  34 S17       29.88S
$$

SDZ004>011-016>023-039-040-301800-
NORTHEAST SOUTH DAKOTA

CITY           SKY/WX    TMP DP  RH WIND       PRES   REMARKS
ABERDEEN       SUNNY     76  65  68 S15G24    29.84S
WATERTOWN      SUNNY     75  64  68 S14       29.91F
BROOKINGS      SUNNY     72  63  73 S13       29.97F
SISSETON         N/A     83  64  52 SW10      29.84S
$$

SDZ017-020-022-023-036>040-048>070-301800-
SOUTHEAST SOUTH DAKOTA

CITY           SKY/WX    TMP DP  RH WIND       PRES   REMARKS
SIOUX FALLS    SUNNY     69  63  81 S13       29.98F
HURON          MOSUNNY   75  64  68 S15       29.88F
CHAMBERLAIN    SUNNY     80  64  58 S9        29.88S
MITCHELL       MOSUNNY   77  67  71 SE14      29.92S
YANKTON        SUNNY     73  64  73 SE12      29.96F
$$

ABBREVIATIONS USED IN REMARKS
   TC - TEMPERATURE IN CELSIUS
  WCI - WIND CHILL INDEX
   HX - HEAT INDEX
  VSB - VISIBILITY




USA.gov is the U.S. government's official web portal to all federal, state and local government web resources and services.